Retour au catalogue

COSMOS 970 DEB

ActifLEO
NORAD 10886·DEBRIS·🇷🇺 Russia

Lancé Dec 21, 1977 depuis Baikonur Cosmodrome

Loading…

Prochains Passages (prochaines 24 heures)

TLE

FraisSource: Space-Track

Époque: Sep 13, 2026, 08:58 UTC

1 10886U 77121AH  26256.37401267  .00000212  00000-0  29987-3 0  9995
2 10886  65.8428 123.5635 0098370  81.5508  92.2388 13.73995491432021

Suivez COSMOS 970 DEB en temps réel avec AllMySat

Download on the App Store